| time (UTC) | temp F | wind direction | speed MPH | gust MPH | rain 1hr in | rain 24hr in | rain mn in | humidity % | barometer mb |
| 20260507113307 | 62 | 112 | 5.0 | 9.0 | 0.00 | 0.00 | 0.00 | 69 | 991.0 |
| 20260507111308 | 64 | 112 | 5.0 | 8.0 | 0.00 | 0.00 | 0.00 | 69 | 992.0 |
| 20260507105307 | 62 | 112 | 4.0 | 8.0 | 0.00 | 0.00 | 0.00 | 69 | 992.0 |
| 20260507103308 | 60 | 112 | 3.0 | 6.0 | 0.00 | 0.00 | 0.00 | 72 | 992.0 |
| 20260507101307 | 64 | 135 | 6.0 | 9.0 | 0.00 | 0.00 | 0.00 | 68 | 992.0 |
| 20260507095308 | 64 | 135 | 3.0 | 5.0 | 0.00 | 0.00 | 0.00 | 68 | 991.0 |
| 20260507093307 | 64 | 135 | 2.0 | 7.0 | 0.00 | 0.00 | 0.00 | 67 | 992.0 |
| 20260507091307 | 62 | 112 | 4.0 | 6.0 | 0.00 | 0.00 | 0.00 | 71 | 992.0 |
| 20260507085307 | 60 | 112 | 4.0 | 7.0 | 0.00 | 0.00 | 0.00 | 73 | 992.0 |
| 20260507083307 | 62 | 112 | 3.0 | 4.0 | 0.00 | 0.00 | 0.00 | 72 | 992.0 |
| 20260507081307 | 62 | 135 | 2.0 | 4.0 | 0.00 | 0.00 | 0.00 | 70 | 992.0 |
| 20260507075307 | 62 | 135 | 3.0 | 6.0 | 0.00 | 0.00 | 0.00 | 72 | 992.0 |
| 20260507073307 | 62 | 112 | 2.0 | 4.0 | 0.00 | 0.00 | 0.00 | 70 | 992.0 |
| 20260507071306 | 62 | 112 | 2.0 | 5.0 | 0.00 | 0.00 | 0.00 | 75 | 992.0 |
| 20260507065307 | 60 | 135 | 2.0 | 3.0 | 0.00 | 0.00 | 0.00 | 72 | 991.0 |
| 20260507063307 | 59 | 135 | 1.0 | 5.0 | 0.00 | 0.00 | 0.00 | 76 | 992.0 |
| 20260507061308 | 59 | 157 | 1.0 | 3.0 | 0.00 | 0.00 | 0.00 | 83 | 992.0 |
| 20260507055308 | 55 | 135 | 1.0 | 3.0 | 0.00 | 0.00 | 0.00 | 87 | 992.0 |
| 20260507053309 | 53 | 157 | 1.0 | 2.0 | 0.00 | 0.00 | 0.00 | 90 | 993.0 |
| 20260507051339 | 51 | 135 | 1.0 | 3.0 | 0.00 | 0.00 | 0.00 | 99 | 992.0 |
| 20260507051307 | 51 | 135 | 1.0 | 3.0 | 0.00 | 0.00 | 0.00 | 99 | 992.0 |
| 20260507045307 | 50 | 135 | 1.0 | 2.0 | 0.00 | 0.00 | 0.00 | 99 | 992.0 |
| 20260507043307 | 50 | 135 | 1.0 | 2.0 | 0.00 | 0.00 | 0.00 | 99 | 992.0 |
| 20260507041340 | 50 | 112 | 2.0 | 4.0 | 0.00 | 0.00 | 0.00 | 99 | 992.0 |
| 20260507041307 | 50 | 112 | 2.0 | 4.0 | 0.00 | 0.00 | 0.00 | 99 | 992.0 |
| 20260507035308 | 48 | 135 | 1.0 | 3.0 | 0.00 | 0.00 | 0.00 | 99 | 991.0 |
| 20260507033307 | 48 | 135 | 0.0 | 2.0 | 0.00 | 0.00 | 0.00 | 99 | 991.0 |
| 20260507031347 | 48 | 157 | 0.0 | 2.0 | 0.00 | 0.00 | 0.00 | 99 | 991.0 |
| 20260507031307 | 48 | 157 | 0.0 | 2.0 | 0.00 | 0.00 | 0.00 | 99 | 991.0 |
| 20260507025307 | 48 | 135 | 0.0 | 2.0 | 0.00 | 0.00 | 0.00 | 99 | 991.0 |
| 20260507023315 | 0 | 135 | 0.0 | 1.0 | 0.00 | 0.00 | 0.00 | 991.0 | |
| 20260507023306 | 48 | 135 | 0.0 | 1.0 | 0.00 | 0.00 | 0.00 | 99 | 991.0 |
| 20260507021307 | 48 | 112 | 1.0 | 2.0 | 0.00 | 0.00 | 0.00 | 99 | 991.0 |
| 20260507015308 | 48 | 135 | 1.0 | 2.0 | 0.00 | 0.00 | 0.00 | 99 | 991.0 |
| 20260507013308 | 48 | 112 | 0.0 | 2.0 | 0.00 | 0.00 | 0.00 | 99 | 991.0 |
| 20260507011306 | 48 | 112 | 0.0 | 1.0 | 0.00 | 0.00 | 0.00 | 99 | 991.0 |
| 20260507005307 | 48 | 112 | 1.0 | 2.0 | 0.00 | 0.00 | 0.00 | 99 | 991.0 |
| 20260507003308 | 48 | 112 | 2.0 | 3.0 | 0.00 | 0.00 | 0.00 | 99 | 991.0 |
| 20260507001309 | 48 | 112 | 2.0 | 3.0 | 0.00 | 0.00 | 0.00 | 99 | 991.0 |
| 20260506235307 | 48 | 135 | 1.0 | 2.0 | 0.00 | 0.00 | 0.00 | 99 | 991.0 |
| 20260506233307 | 48 | 135 | 1.0 | 2.0 | 0.00 | 0.00 | 0.00 | 99 | 991.0 |
| 20260506231307 | 48 | 112 | 1.0 | 2.0 | 0.00 | 0.00 | 0.00 | 99 | 991.0 |
| 20260506225307 | 48 | 112 | 1.0 | 3.0 | 0.00 | 0.00 | 0.00 | 99 | 991.0 |
| 20260506223307 | 48 | 112 | 1.0 | 2.0 | 0.00 | 0.00 | 0.00 | 99 | 991.0 |
| 20260506221339 | 48 | 112 | 1.0 | 2.0 | 0.00 | 0.00 | 0.00 | 99 | 991.0 |
| 20260506221308 | 48 | 112 | 1.0 | 2.0 | 0.00 | 0.00 | 0.00 | 99 | 991.0 |
| 20260506215307 | 48 | 112 | 1.0 | 2.0 | 0.00 | 0.00 | 0.00 | 99 | 991.0 |
| 20260506213308 | 48 | 112 | 0.0 | 2.0 | 0.00 | 0.00 | 0.00 | 99 | 991.0 |
| 20260506211307 | 48 | 112 | 1.0 | 2.0 | 0.00 | 0.00 | 0.00 | 99 | 991.0 |
| 20260506205307 | 48 | 112 | 1.0 | 2.0 | 0.00 | 0.00 | 0.00 | 99 | 991.0 |
| 20260506203308 | 48 | 112 | 1.0 | 2.0 | 0.00 | 0.00 | 0.00 | 99 | 991.0 |
| 20260506201308 | 48 | 112 | 1.0 | 2.0 | 0.00 | 0.00 | 0.00 | 99 | 991.0 |
| 20260506195308 | 48 | 112 | 1.0 | 2.0 | 0.00 | 0.00 | 0.00 | 98 | 992.0 |
| 20260506193600 | 48 | 112 | 2.0 | 3.0 | 0.00 | 0.00 | 0.00 | 98 | 991.0 |
| 20260506193309 | 48 | 112 | 2.0 | 3.0 | 0.00 | 0.00 | 0.00 | 98 | 991.0 |
| 20260506191308 | 48 | 112 | 2.0 | 3.0 | 0.00 | 0.00 | 0.00 | 97 | 991.0 |
| 20260506185308 | 50 | 112 | 2.0 | 3.0 | 0.00 | 0.00 | 0.00 | 97 | 991.0 |
| 20260506183307 | 50 | 112 | 3.0 | 5.0 | 0.00 | 0.00 | 0.00 | 96 | 992.0 |
| 20260506181308 | 50 | 112 | 2.0 | 3.0 | 0.00 | 0.00 | 0.00 | 94 | 991.0 |
| 20260506175308 | 50 | 112 | 2.0 | 3.0 | 0.00 | 0.00 | 0.00 | 92 | 991.0 |
| 20260506173420 | 53 | 112 | 3.0 | 5.0 | 0.00 | 0.00 | 0.00 | 80 | 990.0 |
| 20260506173306 | 50 | 112 | 2.0 | 4.0 | 0.00 | 0.00 | 0.00 | 90 | 990.0 |
| 20260506171307 | 51 | 112 | 2.0 | 4.0 | 0.00 | 0.00 | 0.00 | 85 | 991.0 |
| 20260506165308 | 53 | 112 | 3.0 | 5.0 | 0.00 | 0.00 | 0.00 | 80 | 990.0 |
| 20260506163308 | 55 | 112 | 3.0 | 5.0 | 0.00 | 0.00 | 0.00 | 75 | 990.0 |
| 20260506161307 | 55 | 112 | 2.0 | 4.0 | 0.00 | 0.00 | 0.00 | 71 | 990.0 |
| 20260506155308 | 57 | 112 | 2.0 | 5.0 | 0.00 | 0.00 | 0.00 | 69 | 990.0 |
| 20260506153308 | 59 | 112 | 4.0 | 8.0 | 0.00 | 0.00 | 0.00 | 65 | 991.0 |
| 20260506151340 | 59 | 112 | 4.0 | 7.0 | 0.00 | 0.00 | 0.00 | 62 | 990.0 |
| 20260506151308 | 59 | 112 | 4.0 | 7.0 | 0.00 | 0.00 | 0.00 | 62 | 990.0 |
| 20260506145308 | 60 | 112 | 3.0 | 4.0 | 0.00 | 0.00 | 0.00 | 59 | 990.0 |
| 20260506143308 | 60 | 112 | 2.0 | 3.0 | 0.00 | 0.00 | 0.00 | 57 | 990.0 |
| 20260506141340 | 62 | 112 | 2.0 | 5.0 | 0.00 | 0.00 | 0.00 | 56 | 990.0 |
| 20260506141308 | 62 | 112 | 2.0 | 5.0 | 0.00 | 0.00 | 0.00 | 56 | 990.0 |
| 20260506135307 | 62 | 112 | 2.0 | 3.0 | 0.00 | 0.00 | 0.00 | 58 | 990.0 |
| 20260506133309 | 64 | 112 | 2.0 | 5.0 | 0.00 | 0.00 | 0.00 | 57 | 990.0 |
| 20260506131308 | 62 | 112 | 3.0 | 7.0 | 0.00 | 0.00 | 0.00 | 53 | 991.0 |
| 20260506125308 | 64 | 112 | 3.0 | 5.0 | 0.00 | 0.00 | 0.00 | 50 | 990.0 |
| 20260506123308 | 66 | 112 | 2.0 | 4.0 | 0.00 | 0.00 | 0.00 | 51 | 990.0 |
| 20260506121307 | 66 | 135 | 2.0 | 3.0 | 0.00 | 0.00 | 0.00 | 46 | 991.0 |
| 20260506115307 | 66 | 135 | 2.0 | 4.0 | 0.00 | 0.00 | 0.00 | 47 | 991.0 |